Vorticity
4 4 4 3 4 3 2 -1 1 2 -4 1 2 -0 4 3 2 5 7 7 7 11 14 17 17 15 13 13 14 15 11 8 7 4 4 4 6 10 9 7 5 6 5 5 5 4 4 4 5 5 5 5 5 6 6 7 7 7 6 6 5 5 4 3 4 4 4 3 3 3 3 4 5 5 4 5 6 9 11 12 10 9 6 5 7 7 6 6 5 5 7 8 10 10 10 9 8
5 5 5 5 6 5 7 4 3 5 -2 1 4 -1 4 6 4 8 10 10 14 15 14 13 10 10 11 12 13 13 10 9 8 6 6 7 9 11 9 6 6 7 5 5 4 3 3 4 5 5 5 6 6 6 6 6 7 8 7 6 5 5 4 4 4 4 3 3 3 3 3 4 5 5 4 5 6 8 12 12 10 8 6 6 6 7 6 5 5 5 7 9 10 10 10 8 7
7 7 6 6 7 7 10 9 7 9 5 3 7 6 4 8 9 12 14 14 15 11 8 8 7 9 11 12 12 11 8 7 8 7 8 10 11 9 7 6 6 5 5 5 4 3 4 4 5 5 5 5 5 6 6 7 8 8 7 6 5 5 4 4 4 3 3 3 3 3 3 4 5 5 4 4 5 7 11 13 9 8 6 6 6 7 6 5 4 5 7 9 9 10 10 8 7
9 10 9 9 9 10 10 10 11 10 10 5 7 11 8 11 15 14 13 11 10 7 6 7 7 10 10 9 9 9 8 8 8 8 8 9 9 6 5 5 5 5 5 5 5 5 5 6 6 6 6 6 7 6 6 7 9 8 6 5 5 5 4 4 3 2 2 2 3 3 4 5 5 5 4 3 5 5 10 13 9 7 7 6 6 6 6 5 4 5 7 8 9 10 9 8 7
12 12 12 13 12 13 12 12 13 12 13 9 8 12 10 14 15 11 8 7 8 7 7 7 8 9 8 8 7 8 8 7 7 8 8 7 6 5 5 4 4 5 6 7 7 7 8 7 7 7 8 8 7 7 6 8 9 7 5 5 4 4 4 4 2 3 2 2 3 3 4 5 5 4 3 3 4 5 9 13 9 6 7 7 6 6 6 5 4 4 6 7 8 9 9 7 6
11 12 12 13 12 13 14 14 14 15 15 11 12 15 12 13 10 7 6 6 7 7 8 7 8 8 8 8 7 7 7 7 7 7 7 6 6 5 5 5 5 7 8 8 7 8 8 7 7 7 8 8 8 7 7 7 9 8 6 5 4 4 4 4 2 3 2 2 3 4 4 5 5 3 3 3 3 4 8 13 9 6 7 7 6 5 6 6 5 4 6 6 7 9 8 6 5
8 10 11 11 11 12 13 14 15 15 14 12 14 14 10 9 8 7 7 7 8 8 8 7 8 8 8 7 6 6 6 8 7 6 6 7 6 5 5 6 6 7 7 6 6 7 7 7 7 7 7 9 10 9 10 10 10 8 6 4 4 5 4 4 3 3 2 2 3 4 4 5 4 2 3 3 3 3 7 14 10 6 7 7 5 5 6 6 5 5 5 6 6 8 8 7 6
7 8 9 10 11 12 12 14 15 13 12 11 11 9 7 7 8 9 8 8 9 8 8 8 8 8 7 6 5 6 6 6 5 5 6 6 5 5 5 5 5 5 5 4 5 7 7 8 7 7 6 7 8 8 10 11 9 8 8 7 7 6 4 4 4 3 2 2 2 3 4 5 4 2 3 2 3 4 7 15 11 5 7 7 5 4 6 6 5 5 5 6 6 7 8 8 7
7 8 9 9 10 12 13 13 13 11 9 8 8 7 7 8 9 9 9 10 9 8 8 7 7 6 6 5 5 5 5 5 4 4 4 4 4 4 4 4 5 4 4 5 7 7 7 7 7 6 5 5 5 5 6 7 8 8 10 10 8 6 4 4 4 3 2 2 2 4 4 4 3 2 2 2 4 5 6 15 12 4 6 7 5 3 5 6 5 5 5 5 5 6 8 8 7
8 8 8 9 11 11 11 11 8 7 7 7 8 8 8 9 10 10 10 10 9 8 8 7 6 6 5 4 4 4 4 4 3 3 3 4 4 4 5 6 6 5 6 7 7 6 5 5 5 5 5 5 5 6 7 8 9 11 11 11 9 5 4 5 4 4 2 2 3 4 5 3 3 2 1 1 4 6 6 13 14 4 4 6 5 3 3 6 6 5 5 5 5 5 7 8 7
8 8 8 9 11 10 9 7 6 6 7 8 8 9 9 9 10 11 10 9 8 8 7 6 5 5 4 4 4 4 4 4 3 3 4 5 5 4 5 6 6 7 8 7 5 5 5 4 5 5 4 5 6 6 8 9 11 12 12 11 10 7 6 7 6 5 3 3 4 4 4 2 3 2 1 1 4 7 5 10 15 6 2 4 5 4 3 5 6 6 5 5 5 5 6 6 6
8 8 9 9 9 9 8 6 6 7 8 8 8 9 9 10 11 10 9 8 7 6 6 5 4 4 4 3 3 3 3 3 4 4 5 5 4 4 5 5 7 7 6 6 6 5 5 5 5 4 4 6 6 6 8 10 11 12 12 11 11 11 9 9 7 5 4 4 5 4 3 3 4 3 1 2 2 7 6 7 14 9 2 3 4 4 4 5 5 5 6 5 5 5 6 5 5
9 9 8 9 9 8 7 7 7 7 7 7 8 9 8 9 10 10 9 7 7 6 5 5 4 5 4 3 3 3 3 4 4 4 5 4 3 5 6 6 7 6 7 7 5 4 4 4 3 4 5 6 7 7 8 11 11 10 11 12 11 11 9 7 6 5 5 5 4 3 4 4 4 2 1 2 2 7 8 5 12 11 4 2 4 4 4 5 5 5 6 6 5 5 5 4 4
9 10 8 8 9 9 7 6 7 7 6 7 8 8 8 8 10 10 9 7 6 5 5 4 4 5 4 4 4 3 3 4 4 4 4 3 4 6 6 7 7 7 7 5 4 3 2 3 5 7 7 7 7 7 9 9 11 11 10 13 11 8 6 5 5 5 4 3 3 4 4 3 3 2 2 2 2 6 8 5 10 12 6 2 3 5 5 5 6 5 5 6 6 5 5 5 4
9 9 8 7 9 9 7 6 6 5 5 6 7 7 7 7 8 8 7 6 5 5 4 4 4 4 4 4 3 3 3 4 4 4 3 4 6 8 7 7 7 6 5 3 3 1 1 5 6 8 8 8 7 7 10 9 9 12 12 11 10 7 6 5 5 6 6 6 6 5 4 3 3 3 3 3 3 6 8 7 9 11 8 2 2 5 5 6 6 6 5 7 6 5 5 5 5
10 9 8 8 10 9 7 5 4 4 4 5 5 6 6 6 7 7 6 4 4 4 4 4 4 4 4 4 4 4 4 5 4 4 5 7 8 7 7 7 6 5 4 4 2 0 2 3 5 8 6 7 9 7 9 11 9 10 13 11 9 8 6 8 10 12 13 10 7 4 3 3 3 4 5 5 5 8 9 9 9 10 9 3 1 4 5 6 7 6 5 7 7 5 5 5 5
11 9 8 9 11 9 6 5 4 5 6 4 4 5 5 6 6 6 5 4 4 4 4 4 4 4 4 4 4 5 5 5 4 6 7 8 7 7 6 5 4 4 3 3 1 1 2 1 4 7 8 9 8 7 8 11 11 10 11 9 9 8 7 11 12 10 7 5 4 4 5 5 6 7 8 7 7 9 9 9 9 9 9 4 1 3 4 6 7 7 6 7 6 5 5 5 5
11 9 9 10 10 7 5 4 3 4 5 5 5 5 5 5 5 5 5 5 4 4 5 4 4 5 5 5 5 5 5 4 5 8 9 7 6 6 5 3 3 3 2 2 2 2 2 2 4 4 9 10 5 8 9 8 11 11 10 8 8 8 10 10 6 4 3 4 5 5 6 6 6 8 10 10 8 8 8 10 9 8 8 5 2 2 3 5 7 7 7 7 6 5 5 5 5
11 10 9 10 9 6 5 3 3 3 4 4 4 4 4 4 5 5 5 5 5 4 4 4 4 5 5 6 6 5 4 5 9 10 9 7 6 5 4 4 4 3 2 2 2 2 2 2 4 5 8 9 6 8 10 9 11 12 10 8 8 9 12 7 1 4 6 5 5 5 5 5 5 6 8 8 8 8 8 11 10 8 8 5 2 1 2 4 6 7 7 8 6 5 5 5 4
11 9 8 10 9 6 5 3 3 3 4 4 4 4 4 4 5 5 4 6 6 4 6 7 6 6 6 5 4 4 6 9 11 9 8 6 6 5 5 5 5 4 3 4 3 2 3 2 5 7 5 8 8 7 9 11 12 12 10 7 6 9 11 3 -1 3 5 5 6 5 6 5 5 6 7 6 7 8 9 14 12 8 6 5 3 1 1 3 6 8 8 9 6 5 6 5 4
11 9 8 10 9 5 5 4 3 4 4 4 3 3 4 4 4 5 4 3 5 5 6 8 8 8 6 3 4 7 10 10 9 8 7 6 5 5 6 6 5 5 5 5 4 3 4 4 7 8 4 7 8 7 10 11 11 10 6 5 4 8 10 -2 -5 1 2 4 5 5 5 5 6 6 7 6 7 10 12 14 12 8 4 5 4 1 1 2 5 11 12 10 5 4 7 6 4
11 11 9 9 8 5 5 4 3 4 4 4 3 3 3 3 3 4 5 4 5 6 5 4 4 4 2 4 7 9 9 8 7 7 5 5 6 6 7 7 6 6 6 5 5 5 5 6 8 6 4 7 9 8 11 10 10 10 6 7 7 11 13 -2 -8 -2 1 3 4 5 5 6 7 6 7 7 7 10 13 13 10 7 4 5 6 3 2 2 3 13 14 6 2 4 7 7 5
9 11 10 9 9 6 5 4 4 4 4 4 4 3 3 3 3 4 4 2 2 4 3 2 1 2 4 7 7 7 7 6 6 6 6 7 7 8 8 8 7 6 6 5 5 5 6 6 7 6 4 7 11 11 12 11 11 11 8 8 8 11 14 3 -3 0 2 4 4 5 6 7 8 7 7 7 7 10 13 12 7 5 3 5 8 4 3 3 2 10 14 6 2 5 7 7 5
8 10 11 10 9 7 5 5 4 4 4 4 4 4 4 3 3 4 3 1 1 2 0 0 3 4 6 7 6 6 6 6 7 7 8 8 7 7 8 7 6 6 6 5 5 5 5 7 7 5 5 9 12 12 11 11 11 11 8 7 6 5 7 5 2 4 4 4 4 4 5 6 7 7 7 7 7 8 12 11 6 4 5 6 9 6 3 4 3 6 10 7 4 5 7 7 5
9 10 12 10 9 8 6 5 4 4 4 4 4 4 4 3 4 4 4 3 2 1 -2 1 5 6 6 6 5 5 6 7 8 8 9 8 7 7 7 6 5 5 5 4 4 5 5 7 6 3 6 12 13 11 10 11 10 10 9 7 7 5 4 4 3 5 5 4 3 4 4 5 6 7 7 7 7 8 11 10 6 6 8 7 9 8 4 4 5 5 5 5 4 6 7 7 6
9 9 12 9 8 8 5 5 5 4 4 5 5 4 4 4 4 3 3 4 2 -0 1 4 5 5 6 6 5 5 6 7 8 9 8 7 7 6 6 5 5 5 4 4 4 4 3 3 3 4 9 12 12 10 10 10 10 9 8 7 7 5 4 4 5 4 4 3 2 3 4 4 6 8 8 8 8 8 8 8 7 8 7 5 7 8 7 5 4 5 5 5 5 6 7 6 5
10 9 10 9 8 7 5 5 5 4 5 5 4 4 4 4 4 4 5 3 2 2 2 3 4 6 6 4 5 7 7 7 8 8 7 7 6 5 6 5 4 3 3 3 2 2 0 0 4 8 11 12 11 9 10 11 11 9 9 9 7 5 5 4 4 3 3 3 2 3 4 6 7 8 9 9 9 7 6 6 6 8 7 4 5 8 9 7 4 5 6 6 6 6 7 7 5
10 10 10 10 9 6 6 6 5 5 5 4 5 5 4 5 5 5 5 3 2 3 3 4 6 8 6 5 6 7 8 8 8 6 6 6 4 5 5 4 2 1 2 0 1 1 -2 1 7 11 11 9 10 9 11 12 10 10 8 8 6 5 5 4 2 2 2 2 3 4 5 6 7 8 9 9 9 9 7 5 4 5 6 4 4 7 10 9 5 4 6 7 7 6 7 8 6
8 10 9 10 9 6 7 7 7 6 5 5 5 3 3 4 5 4 2 3 4 2 4 6 8 7 5 6 6 6 8 8 9 8 8 6 6 6 3 1 0 -1 -0 -0 2 -0 1 10 11 14 12 6 12 13 10 12 10 10 9 7 6 5 4 2 2 2 2 4 5 5 6 5 7 8 9 8 8 9 8 6 5 4 5 5 3 6 10 9 5 4 7 7 7 7 8 7 7
8 9 9 10 9 7 7 7 7 6 6 5 4 7 9 6 4 5 3 2 2 2 6 7 5 5 5 5 5 7 8 8 10 10 9 8 7 6 3 2 -0 -1 3 4 8 6 17 33 22 18 13 5 19 18 7 11 12 12 10 6 5 5 4 3 3 4 4 6 5 6 6 5 9 10 9 11 10 9 10 8 7 5 3 4 3 4 9 9 7 6 7 9 8 8 8 7 7
8 7 9 8 9 9 7 6 6 6 7 4 5 10 11 7 3 4 4 1 2 3 6 8 5 4 5 6 6 8 11 11 10 7 7 7 6 4 3 4 0 2 6 6 12 10 19 31 19 15 8 -3 13 18 6 5 7 12 12 7 6 5 4 3 4 5 5 6 5 7 6 5 9 9 11 13 10 10 12 10 8 7 3 2 3 5 7 8 7 7 8 10 12 10 9 7 7
8 9 9 7 9 10 7 7 5 6 7 5 8 5 -1 4 5 3 2 0 3 4 7 9 4 3 6 8 6 5 9 10 9 6 6 5 3 3 3 3 1 4 7 5 12 11 9 14 14 17 12 -0 6 15 13 7 2 5 5 5 7 5 5 5 5 5 4 6 7 7 7 6 6 7 12 9 6 11 14 12 9 7 6 4 4 5 5 6 7 7 7 8 11 12 9 7 7
8 9 7 7 8 6 6 8 7 7 6 5 9 1 -5 3 4 2 2 2 4 5 9 10 3 2 7 8 6 5 5 5 6 6 6 4 2 5 4 3 3 5 7 6 8 8 6 9 13 16 14 7 4 4 9 7 3 2 4 6 5 5 8 7 6 4 4 6 7 7 6 7 6 7 10 8 7 10 12 13 12 9 7 6 5 6 7 6 6 7 7 7 10 12 10 7 7
7 8 7 8 7 4 5 8 8 8 7 6 8 2 -0 4 3 2 3 4 7 9 11 9 3 5 9 7 4 6 7 5 4 5 5 4 4 5 4 3 5 5 6 6 5 6 8 8 9 10 7 8 7 3 10 10 4 3 7 8 5 6 9 8 5 3 3 5 5 7 8 7 8 7 7 8 8 8 9 11 12 11 8 7 6 6 8 8 7 7 7 8 9 12 11 7 7
7 8 9 10 7 6 7 6 7 9 9 7 7 5 4 4 3 3 3 4 8 13 13 7 3 7 10 9 4 6 9 5 4 5 4 5 6 4 3 4 5 6 6 6 6 7 10 9 9 10 5 9 6 1 13 16 6 6 9 10 9 7 6 6 5 2 2 5 6 6 6 6 6 7 8 10 8 6 9 10 9 12 11 10 9 6 8 8 8 7 6 8 9 12 11 7 8
7 10 12 12 11 9 6 5 7 9 9 8 8 10 8 5 4 3 4 9 11 12 10 5 6 9 9 9 8 8 8 7 6 6 6 6 5 3 4 5 6 8 8 8 9 9 10 9 10 10 8 10 5 -3 8 12 7 8 7 7 7 7 8 6 4 4 3 4 6 4 4 3 3 6 6 7 10 5 5 10 8 9 12 16 13 7 8 9 8 7 5 6 10 14 11 6 8
6 9 12 11 12 10 4 6 8 6 8 10 9 9 7 4 5 5 5 9 10 8 7 6 8 9 9 8 7 7 6 6 7 6 7 6 4 5 6 7 7 8 7 7 7 6 7 8 10 12 10 9 6 6 10 11 12 12 9 10 10 5 5 6 6 7 7 5 6 4 2 2 2 8 7 6 15 10 6 10 8 6 10 17 19 10 6 10 9 7 4 6 13 15 9 6 8
6 10 12 10 12 10 5 7 8 6 7 8 4 4 7 6 5 6 7 9 7 4 4 7 9 9 9 8 6 5 5 4 5 5 4 4 5 6 7 7 7 6 5 5 7 8 9 9 9 10 9 7 6 10 12 11 13 11 11 15 13 4 -4 -0 9 11 11 9 7 9 6 4 6 11 11 9 12 10 10 11 11 16 10 6 19 15 6 10 10 7 4 7 15 13 6 7 8
6 8 11 11 10 9 8 7 7 6 5 11 13 8 8 7 6 6 8 10 8 3 4 6 9 9 7 6 5 4 4 3 3 3 3 4 6 7 7 7 6 5 5 7 10 10 7 7 8 6 5 6 6 8 7 5 3 8 21 21 10 9 2 -3 3 7 11 10 10 13 9 6 8 5 4 7 8 7 13 14 13 25 15 -1 16 18 6 9 10 7 4 8 16 9 4 7 8
6 5 10 14 10 8 12 9 8 8 1 7 18 18 13 7 5 7 7 9 7 1 4 6 7 9 7 6 5 4 5 4 4 5 5 6 7 6 7 7 6 7 8 9 8 4 3 6 7 5 5 6 7 8 9 8 3 10 36 38 16 9 8 7 11 10 9 7 9 15 12 8 7 3 1 8 12 9 14 12 7 21 17 2 15 17 7 11 11 6 5 10 14 6 3 7 9
8 7 8 11 12 11 13 9 8 11 5 1 4 9 16 14 6 5 6 7 7 2 3 7 7 7 7 6 5 4 4 4 5 6 6 6 6 6 7 8 8 8 9 8 5 3 5 7 3 4 10 10 9 9 7 7 -1 -4 16 30 18 7 4 9 20 22 14 7 7 12 15 11 6 7 7 8 12 11 13 10 4 15 17 8 14 15 11 15 11 5 6 12 12 4 3 6 9
9 9 7 9 13 12 11 10 8 10 10 7 5 2 11 20 13 6 6 6 5 5 6 7 7 7 5 4 4 4 4 4 4 5 7 6 6 7 8 8 7 7 7 5 5 6 7 8 7 9 14 15 13 9 1 -4 -7 -5 6 15 16 13 4 -6 -2 10 13 11 12 10 11 13 8 7 6 5 8 10 12 11 6 10 15 16 14 11 15 15 9 6 6 12 13 6 5 8 8
10 10 9 11 13 9 8 10 9 12 12 9 11 8 6 16 19 10 7 7 6 6 9 8 7 6 4 4 4 5 4 5 5 6 7 6 6 9 10 9 9 8 7 5 5 7 7 9 11 10 9 10 10 8 5 2 1 7 14 14 13 16 14 2 -3 5 7 10 18 12 6 10 12 8 6 7 8 11 14 14 11 10 18 24 11 7 18 13 5 7 8 13 13 5 5 8 6
10 9 10 12 14 13 13 11 8 11 12 8 9 8 2 3 12 17 12 8 8 8 9 8 6 6 5 5 4 4 4 5 6 6 7 7 7 9 9 8 10 8 6 5 4 6 8 8 9 10 9 8 8 7 8 9 8 9 13 13 10 10 12 10 9 13 11 6 9 12 8 8 11 9 6 5 7 13 14 15 19 20 25 28 9 6 18 10 4 7 6 12 12 6 5 4 3
8 10 12 12 13 13 13 13 9 5 4 5 6 7 9 7 6 16 17 10 8 8 6 6 6 6 5 5 4 3 5 4 5 5 6 9 9 7 7 6 8 8 6 5 6 8 10 8 8 10 10 9 9 8 7 7 8 9 10 11 10 9 9 7 5 12 17 11 4 8 12 10 10 10 5 6 8 10 14 25 31 27 27 25 10 9 14 7 4 3 7 16 10 4 4 3 6
8 14 14 11 12 12 10 8 9 13 7 2 4 3 8 13 8 9 13 9 8 6 4 5 6 7 4 3 4 3 4 4 4 6 6 7 8 7 7 6 7 8 7 7 8 9 10 9 9 9 9 8 7 7 7 6 7 7 8 8 8 9 10 6 1 1 9 13 10 9 11 9 10 9 6 9 10 6 17 36 35 23 24 23 13 10 10 7 4 2 18 26 6 -0 7 8 11
9 12 11 11 14 13 11 3 0 13 13 4 9 8 2 7 9 11 12 8 8 6 5 7 6 5 3 1 3 3 2 3 2 4 6 6 7 7 5 7 9 10 9 8 9 8 8 8 8 8 7 7 7 7 7 8 7 7 7 7 7 8 9 9 7 3 -1 2 5 7 9 10 10 8 6 10 10 6 11 23 25 19 23 25 17 11 7 7 5 3 14 19 5 5 11 7 5
10 8 6 10 13 11 10 6 -0 6 11 5 7 10 6 5 3 6 13 10 8 8 5 6 4 2 2 0 2 1 -0 1 -0 1 6 8 8 7 4 6 10 12 12 9 8 7 7 7 7 8 8 8 9 9 9 9 9 8 7 6 6 7 8 9 10 11 6 1 -1 -2 1 7 12 10 7 9 12 9 4 9 17 17 20 25 19 10 5 6 7 3 3 4 4 7 6 2 4
11 8 6 6 10 10 5 5 5 6 10 7 10 14 8 5 1 -0 11 14 8 7 4 3 4 1 1 0 -0 2 2 2 -0 0 6 10 9 6 5 7 9 10 11 9 8 7 6 7 8 8 9 8 9 9 10 11 10 10 9 8 7 6 7 7 8 10 11 9 6 4 2 5 9 10 10 10 12 10 5 6 14 17 19 24 17 6 5 7 7 6 4 3 4 4 3 5 7
7 6 6 4 5 7 6 6 4 7 10 2 7 16 6 4 5 -2 9 16 5 2 3 2 3 1 1 2 0 3 4 2 0 1 7 11 9 5 6 9 8 7 8 8 8 8 7 7 6 7 7 8 9 10 10 11 10 10 10 9 8 7 7 7 6 7 9 10 10 11 11 8 6 8 11 11 9 8 6 6 13 18 19 18 12 7 6 6 6 8 7 4 3 5 6 8 6
10 9 10 10 8 8 13 13 2 6 20 11 4 10 7 9 10 -3 3 13 4 -0 2 1 3 2 1 1 1 2 3 2 1 3 9 11 8 7 9 10 8 7 8 8 8 7 6 6 5 6 8 9 12 13 13 12 10 8 8 8 8 8 9 7 6 6 8 12 10 8 10 11 10 10 10 9 6 5 6 6 11 17 17 12 10 10 7 5 8 10 9 7 6 6 8 8 6
12 12 10 10 11 12 16 11 -5 -6 12 17 8 2 3 11 13 2 -1 5 4 3 4 1 0 1 -1 -0 1 2 3 3 1 3 10 11 9 10 11 9 7 7 8 7 7 7 7 7 7 7 7 8 10 11 11 12 11 9 8 7 7 8 10 10 8 5 7 13 14 8 6 8 12 14 15 13 8 4 5 7 7 11 16 13 10 11 7 5 8 8 7 8 3 -0 3 4 3
9 8 11 12 6 9 21 15 -2 -9 -1 15 17 4 -1 5 11 8 -1 -2 1 0 2 3 1 0 -0 1 2 3 4 3 0 4 11 12 14 15 11 8 7 6 7 7 7 8 8 7 7 7 6 5 5 6 8 10 12 13 11 10 9 8 10 14 12 8 9 15 17 11 6 6 9 16 22 18 9 4 6 7 5 10 18 15 12 12 9 7 8 7 5 4 -0 -1 2 3 5
11 6 12 18 -1 -6 16 21 8 -5 -10 3 14 7 2 3 8 12 6 2 1 -2 -3 -2 -1 1 1 2 2 3 5 3 -0 3 7 8 14 14 10 8 7 6 6 7 7 8 7 7 6 5 5 7 8 10 11 14 18 20 18 16 15 11 13 19 19 14 15 20 18 11 8 9 9 16 24 16 4 5 9 8 4 7 14 14 14 15 13 9 7 7 6 5 5 7 8 7 8
17 13 10 16 6 -2 8 14 13 7 -1 0 7 9 8 6 8 11 11 10 6 2 0 -1 1 4 2 2 3 4 5 2 -0 3 6 6 7 4 3 6 6 6 7 7 7 7 7 6 5 7 11 14 13 12 12 15 19 20 18 18 19 16 13 17 20 18 19 24 21 10 7 12 10 15 22 14 4 5 10 10 6 3 6 9 14 18 16 12 8 8 8 8 9 11 12 12 9
10 12 12 13 12 12 10 8 9 12 13 11 8 10 8 7 12 12 9 12 11 7 6 4 5 5 3 3 4 4 5 2 0 3 7 10 8 3 4 7 7 7 8 7 7 8 7 8 10 12 13 11 9 8 11 13 11 8 7 9 11 11 8 10 14 17 18 23 23 14 11 14 11 13 20 16 10 9 8 8 6 3 3 6 11 16 14 10 10 12 9 7 10 12 12 11 8
6 7 13 13 9 11 13 12 6 1 9 11 8 13 9 2 11 15 9 9 10 9 9 7 5 4 2 3 3 4 3 2 2 4 8 12 10 7 7 8 8 8 8 8 9 9 7 8 9 7 5 6 9 10 11 10 6 5 6 8 8 6 4 5 9 13 15 18 22 21 20 20 14 12 17 14 8 7 8 9 8 6 5 4 7 13 13 10 12 16 14 10 9 10 12 13 11
14 13 13 11 9 8 8 12 5 -4 3 7 3 13 15 3 4 8 8 9 8 8 8 4 2 0 2 4 5 5 5 4 6 9 11 11 8 7 9 10 9 8 8 9 9 9 8 5 2 -0 4 10 12 11 11 10 8 8 9 10 11 10 8 8 9 11 12 13 19 23 19 18 18 18 18 13 3 0 5 9 9 9 9 5 4 8 10 11 13 15 18 17 12 11 16 17 13
Height
5873 5874 5875 5876 5877 5877 5878 5880 5879 5879 5883 5882 5884 5884 5882 5882 5882 5882 5884 5884 5883 5883 5883 5884 5884 5884 5884 5885 5885 5884 5884 5884 5885 5885 5885 5886 5887 5888 5889 5889 5889 5888 5888 5887 5887 5886 5885 5885 5884 5884 5883 5883 5882 5881 5881 5880 5880 5879 5879 5878 5877 5876 5875 5874 5874 5873 5872 5871 5870 5869 5868 5867 5866 5866 5865 5864 5863 5862 5861 5860 5859 5858 5858 5857 5856 5856 5855 5854 5854 5853 5852 5851 5850 5849 5849 5848 5848
5870 5871 5872 5873 5874 5875 5875 5877 5877 5877 5880 5881 5882 5881 5879 5879 5879 5881 5882 5882 5882 5882 5882 5882 5882 5883 5883 5883 5883 5882 5882 5882 5883 5884 5885 5886 5887 5888 5888 5888 5887 5887 5887 5886 5886 5885 5884 5884 5884 5883 5883 5882 5881 5881 5880 5879 5879 5879 5878 5877 5876 5875 5874 5874 5873 5872 5871 5870 5869 5869 5868 5867 5866 5866 5865 5864 5863 5862 5861 5860 5859 5858 5858 5857 5856 5855 5854 5854 5853 5853 5852 5851 5850 5850 5849 5849 5849
5867 5868 5869 5870 5871 5872 5872 5874 5874 5876 5878 5880 5879 5876 5877 5876 5877 5880 5880 5880 5880 5880 5880 5881 5881 5881 5882 5881 5881 5881 5881 5881 5882 5883 5885 5886 5887 5887 5887 5887 5886 5886 5886 5885 5885 5885 5884 5884 5883 5883 5882 5881 5881 5880 5880 5879 5878 5878 5877 5876 5875 5874 5874 5873 5872 5871 5871 5870 5869 5868 5868 5867 5866 5865 5864 5863 5863 5862 5860 5859 5859 5858 5858 5857 5856 5855 5854 5853 5852 5852 5851 5851 5850 5849 5849 5849 5849
5863 5864 5866 5867 5867 5868 5869 5870 5872 5874 5875 5878 5876 5872 5875 5875 5875 5878 5878 5878 5878 5879 5879 5879 5880 5880 5880 5880 5879 5879 5880 5881 5882 5883 5885 5886 5886 5886 5886 5885 5885 5885 5885 5885 5885 5885 5884 5883 5883 5882 5881 5881 5880 5880 5879 5878 5878 5877 5876 5875 5874 5874 5873 5872 5872 5871 5870 5869 5869 5868 5868 5867 5866 5865 5864 5863 5863 5862 5860 5859 5858 5858 5858 5857 5856 5855 5853 5853 5852 5851 5851 5851 5850 5850 5849 5849 5849
5860 5861 5862 5863 5864 5865 5866 5867 5868 5872 5872 5874 5872 5869 5872 5872 5874 5876 5876 5876 5877 5877 5878 5878 5878 5878 5878 5878 5878 5878 5879 5880 5882 5883 5884 5885 5885 5885 5884 5884 5884 5884 5884 5884 5884 5884 5884 5883 5882 5881 5881 5880 5879 5879 5878 5878 5877 5876 5875 5874 5873 5873 5872 5872 5871 5870 5870 5869 5868 5868 5867 5867 5866 5865 5864 5863 5862 5861 5860 5859 5858 5858 5858 5857 5856 5855 5853 5853 5852 5851 5850 5850 5850 5850 5849 5849 5849
5857 5858 5859 5860 5860 5862 5863 5864 5866 5869 5869 5870 5869 5867 5869 5870 5872 5874 5874 5874 5875 5876 5876 5876 5876 5876 5876 5876 5877 5877 5878 5880 5881 5883 5883 5884 5884 5883 5883 5883 5883 5883 5883 5883 5883 5883 5883 5882 5881 5880 5880 5879 5878 5878 5877 5876 5876 5875 5874 5873 5872 5872 5871 5871 5870 5870 5869 5868 5868 5867 5867 5867 5866 5865 5864 5863 5862 5861 5859 5858 5858 5858 5858 5857 5856 5855 5853 5853 5852 5850 5850 5850 5850 5850 5850 5849 5849
5854 5855 5856 5857 5857 5859 5860 5861 5864 5865 5865 5866 5866 5865 5867 5869 5871 5872 5872 5873 5874 5874 5874 5874 5874 5874 5874 5874 5875 5876 5878 5879 5880 5881 5882 5882 5882 5882 5882 5882 5882 5882 5882 5882 5882 5882 5882 5881 5880 5880 5879 5878 5877 5877 5876 5875 5875 5874 5873 5872 5871 5871 5870 5870 5869 5868 5868 5867 5867 5867 5867 5867 5866 5865 5864 5863 5862 5861 5859 5858 5858 5857 5857 5857 5856 5855 5854 5853 5852 5850 5850 5850 5849 5850 5850 5850 5849
5851 5852 5854 5854 5855 5856 5857 5859 5861 5862 5862 5862 5863 5863 5865 5867 5869 5870 5870 5871 5872 5872 5872 5873 5873 5873 5873 5873 5874 5875 5877 5878 5879 5880 5881 5881 5881 5881 5881 5881 5881 5881 5881 5881 5881 5881 5880 5880 5879 5878 5878 5877 5876 5876 5875 5874 5873 5873 5872 5871 5870 5869 5869 5868 5868 5867 5867 5867 5866 5866 5867 5866 5866 5865 5864 5863 5862 5861 5860 5858 5857 5857 5857 5857 5856 5855 5854 5853 5852 5851 5850 5850 5849 5849 5850 5849 5849
5848 5849 5851 5852 5853 5854 5855 5857 5858 5858 5858 5860 5861 5862 5863 5865 5867 5868 5868 5870 5870 5870 5871 5871 5871 5872 5871 5872 5873 5875 5876 5877 5878 5879 5879 5879 5879 5879 5879 5879 5880 5880 5880 5880 5880 5880 5879 5879 5878 5877 5877 5876 5875 5875 5874 5873 5872 5872 5871 5870 5869 5868 5868 5867 5867 5866 5866 5866 5865 5865 5866 5866 5865 5865 5864 5863 5862 5861 5860 5858 5857 5856 5856 5857 5856 5855 5854 5853 5852 5851 5850 5849 5849 5849 5850 5849 5849
5846 5847 5849 5849 5850 5852 5853 5855 5855 5855 5856 5858 5859 5860 5862 5864 5865 5866 5867 5868 5868 5869 5869 5870 5870 5870 5871 5871 5872 5874 5875 5876 5877 5877 5877 5878 5878 5878 5878 5878 5879 5879 5879 5879 5879 5878 5878 5878 5877 5876 5876 5875 5874 5874 5873 5872 5871 5871 5870 5869 5868 5867 5867 5866 5866 5866 5866 5865 5865 5865 5865 5865 5864 5864 5864 5863 5862 5862 5860 5859 5857 5856 5855 5856 5856 5855 5854 5853 5852 5851 5850 5849 5849 5849 5849 5849 5849
5843 5844 5846 5847 5848 5850 5851 5852 5852 5852 5855 5856 5857 5859 5860 5861 5863 5865 5865 5866 5867 5867 5868 5868 5869 5869 5870 5870 5872 5873 5874 5874 5875 5875 5876 5877 5877 5877 5877 5877 5877 5878 5878 5877 5877 5877 5877 5876 5876 5875 5875 5874 5873 5872 5871 5871 5870 5870 5869 5868 5867 5867 5866 5865 5865 5865 5865 5865 5864 5864 5864 5864 5864 5863 5863 5862 5862 5861 5860 5859 5857 5855 5854 5855 5856 5855 5854 5853 5852 5851 5850 5850 5849 5849 5849 5849 5849
5840 5842 5843 5844 5846 5847 5848 5849 5849 5851 5853 5854 5856 5858 5858 5860 5862 5863 5863 5864 5865 5866 5866 5867 5868 5868 5869 5870 5871 5872 5872 5873 5873 5874 5875 5875 5876 5875 5875 5876 5876 5876 5876 5876 5876 5876 5875 5875 5874 5874 5874 5873 5872 5871 5870 5870 5869 5868 5867 5867 5866 5866 5866 5865 5865 5865 5865 5864 5864 5863 5863 5864 5863 5863 5862 5862 5861 5861 5860 5859 5857 5855 5854 5853 5855 5855 5853 5853 5852 5851 5850 5850 5849 5849 5849 5849 5849
5837 5840 5841 5841 5843 5845 5846 5846 5847 5850 5851 5852 5854 5856 5857 5858 5860 5861 5862 5862 5864 5864 5865 5866 5866 5867 5868 5869 5870 5870 5871 5871 5872 5873 5873 5874 5874 5874 5874 5874 5874 5874 5874 5874 5874 5874 5874 5873 5873 5873 5872 5871 5871 5870 5869 5868 5868 5867 5866 5865 5865 5865 5865 5864 5864 5864 5864 5863 5863 5862 5862 5862 5862 5862 5862 5861 5861 5861 5860 5859 5857 5855 5854 5852 5853 5855 5854 5852 5852 5851 5850 5849 5849 5849 5849 5849 5849
5835 5837 5838 5839 5841 5843 5843 5843 5846 5848 5849 5851 5853 5854 5855 5856 5858 5859 5860 5861 5862 5863 5863 5864 5865 5866 5867 5867 5868 5868 5869 5870 5871 5871 5872 5873 5873 5873 5873 5873 5873 5873 5873 5872 5872 5872 5872 5872 5871 5871 5871 5870 5869 5868 5868 5867 5866 5865 5865 5864 5864 5864 5864 5863 5863 5863 5863 5862 5862 5861 5861 5861 5861 5861 5861 5860 5860 5860 5859 5858 5857 5855 5854 5852 5851 5853 5854 5852 5851 5851 5850 5850 5849 5849 5849 5849 5848
5832 5834 5836 5837 5839 5840 5840 5841 5844 5846 5847 5849 5850 5851 5853 5854 5856 5858 5859 5860 5860 5861 5862 5863 5864 5865 5865 5866 5866 5867 5868 5869 5869 5870 5871 5871 5872 5872 5871 5872 5872 5871 5871 5871 5871 5871 5871 5870 5870 5870 5869 5868 5867 5867 5866 5865 5865 5864 5863 5863 5863 5862 5862 5862 5861 5861 5861 5861 5861 5860 5860 5859 5859 5860 5860 5860 5859 5859 5859 5858 5857 5855 5853 5852 5851 5851 5852 5852 5851 5851 5850 5850 5849 5848 5849 5848 5848
5830 5832 5833 5835 5837 5837 5837 5839 5842 5843 5845 5847 5848 5849 5851 5853 5855 5856 5857 5858 5859 5860 5861 5861 5862 5863 5864 5864 5865 5865 5867 5868 5868 5868 5869 5870 5870 5870 5870 5870 5870 5870 5870 5870 5869 5869 5869 5869 5869 5869 5868 5866 5866 5865 5864 5864 5863 5862 5862 5861 5861 5861 5861 5860 5860 5860 5860 5859 5859 5859 5858 5858 5858 5858 5858 5859 5858 5858 5858 5857 5856 5855 5853 5852 5851 5850 5850 5851 5851 5850 5850 5849 5849 5848 5848 5848 5848
5827 5829 5831 5833 5835 5834 5835 5837 5839 5840 5842 5844 5845 5847 5849 5851 5853 5854 5855 5856 5857 5858 5859 5860 5861 5862 5862 5863 5864 5864 5865 5866 5867 5867 5867 5868 5868 5869 5869 5869 5869 5869 5869 5869 5868 5868 5868 5868 5868 5867 5866 5865 5864 5863 5862 5862 5861 5861 5861 5860 5860 5859 5859 5859 5859 5858 5858 5858 5858 5857 5857 5857 5856 5855 5856 5857 5857 5857 5856 5856 5856 5855 5853 5852 5851 5850 5849 5849 5850 5850 5849 5849 5848 5848 5848 5847 5847
5825 5826 5828 5830 5831 5831 5832 5834 5836 5838 5840 5842 5844 5846 5847 5849 5851 5852 5853 5854 5856 5856 5858 5859 5859 5860 5861 5862 5863 5863 5864 5865 5865 5865 5866 5866 5866 5867 5867 5867 5867 5867 5867 5867 5867 5867 5867 5867 5867 5865 5865 5863 5861 5861 5860 5860 5859 5859 5859 5858 5858 5858 5858 5857 5857 5857 5856 5856 5856 5855 5855 5855 5854 5854 5854 5854 5855 5855 5855 5855 5855 5854 5853 5852 5850 5849 5848 5848 5849 5849 5849 5848 5848 5847 5847 5847 5847
5822 5824 5826 5828 5828 5828 5829 5831 5834 5836 5838 5840 5842 5844 5845 5847 5849 5851 5852 5853 5854 5855 5856 5857 5857 5858 5859 5861 5861 5862 5863 5863 5864 5864 5864 5864 5865 5865 5865 5865 5866 5866 5866 5866 5866 5866 5866 5865 5864 5863 5863 5861 5859 5858 5858 5858 5857 5857 5856 5856 5856 5856 5856 5856 5855 5855 5855 5854 5854 5853 5853 5853 5853 5852 5852 5852 5853 5853 5854 5854 5854 5854 5853 5851 5850 5849 5848 5847 5847 5848 5848 5848 5847 5847 5846 5846 5846
5819 5822 5823 5824 5824 5825 5827 5829 5832 5834 5836 5838 5840 5841 5843 5845 5847 5849 5850 5851 5852 5853 5854 5855 5856 5857 5858 5859 5860 5860 5861 5862 5862 5862 5863 5863 5863 5863 5863 5864 5864 5864 5864 5864 5864 5864 5864 5864 5862 5861 5861 5859 5858 5857 5856 5856 5855 5855 5854 5854 5854 5854 5854 5854 5853 5853 5853 5852 5852 5851 5851 5851 5851 5851 5850 5850 5851 5851 5852 5853 5853 5853 5852 5851 5849 5848 5847 5847 5847 5847 5847 5847 5846 5846 5846 5845 5845
5817 5819 5820 5821 5821 5822 5824 5826 5829 5832 5834 5836 5837 5839 5841 5843 5845 5847 5848 5850 5850 5851 5852 5853 5854 5855 5856 5857 5858 5859 5859 5860 5860 5860 5861 5861 5861 5862 5862 5862 5862 5863 5862 5862 5862 5862 5862 5861 5861 5859 5859 5858 5857 5856 5854 5854 5853 5853 5852 5852 5852 5852 5852 5852 5851 5851 5851 5851 5850 5850 5849 5849 5849 5850 5849 5849 5849 5849 5850 5851 5851 5852 5851 5850 5849 5847 5846 5846 5846 5846 5846 5846 5845 5845 5845 5844 5844
5815 5816 5818 5818 5818 5819 5822 5824 5827 5829 5831 5833 5835 5837 5839 5841 5843 5845 5846 5847 5848 5849 5850 5851 5852 5853 5854 5855 5856 5856 5857 5857 5858 5858 5859 5859 5859 5860 5860 5860 5860 5860 5860 5860 5860 5860 5859 5859 5858 5857 5857 5856 5855 5854 5852 5852 5851 5851 5851 5850 5850 5850 5850 5850 5850 5850 5849 5849 5849 5848 5848 5847 5848 5848 5848 5847 5847 5847 5848 5849 5850 5850 5850 5850 5849 5847 5845 5845 5846 5846 5845 5845 5844 5844 5844 5843 5843
5812 5814 5815 5815 5816 5817 5820 5822 5825 5827 5829 5831 5833 5835 5837 5839 5841 5843 5844 5845 5846 5847 5849 5850 5851 5852 5853 5853 5854 5854 5854 5855 5855 5856 5857 5857 5857 5858 5858 5858 5858 5858 5858 5857 5857 5857 5857 5856 5856 5855 5854 5853 5852 5851 5850 5850 5849 5849 5849 5849 5848 5848 5848 5848 5848 5848 5848 5847 5846 5846 5846 5845 5846 5846 5846 5846 5846 5846 5846 5847 5848 5848 5849 5849 5848 5846 5845 5844 5845 5845 5844 5844 5843 5843 5843 5842 5842
5809 5811 5812 5813 5814 5816 5818 5820 5822 5824 5827 5829 5831 5833 5835 5837 5839 5840 5842 5843 5844 5845 5847 5848 5849 5850 5851 5851 5851 5851 5852 5852 5853 5854 5854 5855 5855 5855 5856 5856 5856 5856 5855 5855 5855 5855 5855 5854 5853 5852 5851 5850 5850 5849 5848 5848 5847 5847 5847 5847 5847 5847 5847 5847 5846 5846 5845 5845 5844 5844 5844 5843 5843 5844 5844 5844 5844 5844 5844 5845 5846 5847 5847 5847 5847 5846 5844 5843 5843 5844 5844 5843 5842 5842 5842 5841 5841
5807 5809 5810 5811 5812 5813 5815 5817 5819 5822 5824 5827 5829 5831 5833 5834 5836 5838 5840 5841 5842 5843 5845 5846 5847 5848 5848 5848 5849 5849 5849 5850 5851 5852 5852 5852 5852 5853 5853 5853 5854 5853 5853 5853 5853 5852 5852 5851 5850 5849 5848 5848 5847 5846 5846 5845 5845 5845 5845 5845 5845 5845 5844 5844 5843 5843 5843 5842 5842 5842 5842 5841 5841 5842 5842 5842 5842 5842 5842 5843 5844 5845 5845 5846 5845 5845 5843 5842 5842 5842 5842 5842 5841 5841 5841 5840 5840
5805 5806 5807 5808 5809 5811 5813 5815 5817 5820 5822 5825 5827 5828 5830 5832 5834 5836 5837 5838 5839 5841 5843 5844 5844 5845 5845 5846 5846 5846 5847 5848 5849 5849 5850 5850 5850 5850 5850 5851 5851 5851 5851 5851 5851 5850 5850 5849 5848 5846 5846 5845 5844 5843 5843 5843 5843 5842 5842 5842 5842 5842 5841 5841 5841 5840 5840 5840 5840 5840 5840 5840 5840 5840 5840 5840 5840 5840 5841 5841 5842 5843 5844 5844 5844 5843 5842 5841 5840 5840 5840 5840 5840 5840 5840 5839 5839
5803 5804 5805 5806 5807 5810 5811 5813 5816 5818 5820 5822 5824 5826 5828 5830 5832 5833 5835 5835 5837 5839 5840 5841 5842 5842 5843 5843 5844 5844 5844 5846 5847 5847 5847 5847 5847 5848 5848 5848 5849 5849 5849 5849 5848 5848 5847 5846 5844 5843 5842 5841 5840 5840 5839 5839 5839 5839 5839 5839 5838 5838 5838 5838 5838 5838 5838 5837 5838 5838 5838 5838 5838 5838 5838 5838 5838 5838 5838 5839 5840 5840 5841 5841 5842 5842 5841 5840 5839 5838 5839 5839 5838 5838 5838 5838 5838
5801 5802 5803 5804 5806 5808 5810 5812 5814 5816 5818 5820 5822 5824 5826 5828 5829 5831 5832 5833 5835 5837 5838 5839 5840 5840 5840 5841 5841 5841 5842 5843 5844 5844 5844 5844 5845 5845 5846 5846 5847 5847 5847 5846 5846 5845 5844 5842 5840 5839 5838 5837 5836 5836 5835 5835 5835 5835 5835 5835 5835 5835 5835 5836 5836 5836 5836 5836 5836 5836 5836 5836 5836 5836 5836 5835 5835 5835 5835 5836 5837 5837 5838 5839 5840 5840 5840 5838 5837 5836 5837 5837 5837 5837 5837 5837 5837
5799 5800 5801 5802 5804 5806 5808 5810 5812 5814 5815 5817 5820 5822 5823 5825 5827 5828 5829 5831 5832 5834 5836 5837 5837 5837 5838 5838 5838 5838 5840 5841 5841 5842 5842 5843 5843 5844 5844 5845 5845 5845 5845 5844 5842 5841 5839 5837 5835 5834 5834 5834 5833 5832 5832 5832 5832 5832 5832 5832 5832 5833 5833 5834 5834 5834 5834 5834 5834 5834 5834 5834 5834 5834 5833 5833 5832 5832 5832 5833 5834 5835 5836 5837 5838 5838 5838 5836 5835 5835 5835 5835 5835 5835 5836 5835 5835
5796 5798 5799 5801 5803 5804 5806 5808 5810 5812 5814 5816 5818 5821 5821 5823 5825 5825 5826 5828 5830 5832 5834 5834 5835 5835 5835 5835 5835 5836 5837 5839 5839 5840 5841 5841 5842 5843 5843 5843 5843 5843 5842 5841 5839 5837 5837 5835 5833 5833 5833 5834 5834 5834 5834 5833 5832 5831 5831 5830 5831 5831 5832 5832 5832 5832 5833 5833 5832 5832 5832 5832 5832 5831 5831 5830 5830 5830 5830 5830 5831 5832 5833 5834 5835 5836 5835 5834 5834 5833 5833 5834 5834 5834 5834 5834 5834
5793 5795 5797 5799 5800 5801 5803 5805 5807 5809 5812 5814 5818 5821 5819 5820 5822 5822 5824 5826 5827 5830 5831 5832 5832 5833 5833 5832 5832 5833 5834 5836 5837 5838 5839 5839 5840 5841 5841 5841 5841 5841 5840 5839 5837 5836 5837 5837 5837 5837 5837 5837 5837 5836 5836 5835 5833 5833 5832 5831 5831 5831 5831 5831 5831 5831 5831 5831 5831 5830 5830 5830 5830 5830 5828 5828 5828 5828 5828 5828 5828 5829 5829 5831 5832 5833 5833 5832 5832 5831 5831 5831 5832 5832 5832 5832 5832
5790 5793 5795 5797 5798 5798 5800 5803 5805 5807 5810 5812 5816 5819 5816 5817 5819 5819 5821 5823 5825 5827 5828 5830 5830 5830 5831 5830 5830 5832 5832 5834 5836 5836 5837 5837 5838 5838 5839 5839 5840 5839 5839 5838 5837 5835 5836 5837 5837 5838 5838 5838 5837 5835 5834 5832 5832 5832 5832 5832 5832 5832 5831 5830 5830 5830 5829 5829 5829 5829 5828 5828 5828 5827 5826 5826 5825 5825 5826 5826 5826 5826 5826 5827 5828 5829 5830 5830 5830 5829 5829 5829 5830 5830 5831 5831 5831
5788 5791 5792 5794 5795 5794 5797 5800 5802 5805 5808 5810 5814 5815 5813 5814 5816 5817 5819 5820 5823 5825 5826 5828 5828 5828 5828 5827 5828 5830 5831 5831 5833 5834 5834 5835 5836 5837 5837 5837 5837 5837 5837 5836 5835 5833 5833 5833 5834 5835 5835 5835 5834 5833 5831 5830 5831 5831 5831 5831 5831 5830 5830 5829 5829 5828 5828 5828 5827 5827 5826 5826 5825 5825 5824 5824 5823 5822 5823 5823 5822 5823 5823 5824 5825 5825 5826 5827 5827 5827 5827 5827 5828 5828 5829 5829 5829
5785 5787 5788 5790 5791 5792 5794 5797 5800 5803 5806 5808 5810 5810 5810 5812 5814 5814 5816 5818 5821 5823 5824 5826 5826 5826 5826 5825 5826 5829 5830 5830 5831 5832 5832 5833 5834 5834 5835 5834 5834 5834 5834 5834 5833 5831 5830 5830 5830 5832 5832 5833 5832 5830 5830 5830 5831 5832 5831 5831 5830 5829 5828 5828 5827 5827 5827 5826 5826 5825 5825 5824 5823 5822 5822 5822 5821 5820 5820 5819 5820 5820 5820 5820 5821 5822 5823 5824 5824 5825 5825 5825 5826 5826 5827 5827 5827
5782 5784 5786 5788 5789 5790 5792 5794 5798 5801 5804 5806 5806 5807 5809 5810 5811 5812 5815 5817 5819 5820 5822 5823 5823 5824 5824 5823 5825 5827 5828 5828 5829 5830 5830 5831 5831 5832 5832 5832 5832 5832 5832 5831 5830 5829 5828 5828 5828 5829 5831 5831 5830 5828 5829 5829 5830 5831 5830 5830 5829 5828 5827 5826 5826 5825 5825 5824 5824 5824 5823 5822 5821 5820 5819 5819 5819 5818 5817 5817 5816 5816 5816 5816 5817 5819 5820 5821 5821 5822 5823 5823 5824 5824 5825 5825 5825
5779 5782 5784 5786 5787 5788 5788 5791 5795 5798 5801 5802 5802 5804 5806 5807 5808 5810 5813 5815 5817 5818 5819 5820 5821 5821 5822 5822 5823 5825 5826 5827 5827 5828 5828 5828 5829 5829 5829 5829 5829 5830 5830 5829 5828 5827 5826 5826 5826 5828 5829 5829 5828 5827 5827 5827 5828 5828 5828 5828 5827 5827 5825 5824 5823 5822 5821 5822 5822 5822 5820 5819 5817 5817 5816 5816 5815 5814 5814 5814 5813 5813 5813 5813 5814 5816 5817 5818 5818 5819 5820 5821 5822 5822 5823 5823 5823
5777 5779 5781 5783 5784 5784 5785 5789 5793 5795 5797 5798 5800 5801 5803 5804 5806 5808 5811 5813 5815 5815 5816 5817 5818 5819 5820 5820 5821 5823 5824 5825 5826 5826 5826 5826 5826 5826 5826 5827 5827 5827 5827 5827 5826 5824 5824 5824 5825 5826 5827 5827 5827 5826 5825 5825 5825 5825 5825 5825 5824 5824 5823 5822 5821 5820 5819 5820 5820 5819 5817 5815 5814 5814 5814 5813 5811 5810 5810 5811 5811 5810 5809 5809 5811 5812 5813 5815 5815 5816 5818 5818 5819 5820 5821 5821 5822
5774 5776 5778 5780 5781 5781 5783 5787 5789 5791 5793 5795 5797 5798 5799 5802 5804 5806 5808 5810 5812 5813 5814 5815 5816 5817 5818 5818 5819 5820 5821 5823 5824 5824 5824 5824 5824 5824 5824 5824 5825 5825 5825 5825 5824 5823 5823 5824 5825 5825 5825 5825 5825 5824 5823 5822 5822 5822 5823 5822 5822 5822 5821 5821 5819 5818 5818 5818 5818 5816 5814 5813 5811 5812 5812 5811 5809 5808 5807 5808 5808 5807 5806 5806 5807 5808 5810 5812 5813 5814 5815 5816 5817 5818 5819 5819 5820
5770 5772 5774 5777 5778 5778 5780 5784 5785 5787 5790 5792 5794 5795 5796 5800 5802 5803 5805 5807 5809 5811 5811 5812 5813 5815 5816 5816 5817 5818 5819 5821 5822 5822 5822 5822 5822 5822 5822 5822 5822 5823 5823 5822 5822 5821 5821 5822 5823 5822 5822 5822 5822 5822 5821 5820 5820 5820 5820 5819 5819 5819 5819 5818 5817 5816 5816 5815 5814 5813 5812 5811 5810 5810 5810 5808 5806 5805 5805 5805 5805 5805 5804 5804 5805 5806 5807 5809 5810 5811 5812 5813 5815 5816 5817 5817 5818
5766 5768 5771 5773 5774 5775 5778 5780 5782 5784 5787 5789 5791 5793 5794 5797 5799 5800 5802 5804 5806 5808 5809 5810 5811 5813 5814 5814 5815 5816 5817 5819 5820 5820 5820 5820 5820 5820 5820 5820 5820 5821 5821 5820 5819 5819 5819 5820 5820 5820 5819 5819 5819 5819 5819 5818 5819 5818 5817 5816 5817 5816 5816 5815 5814 5813 5813 5813 5812 5811 5809 5808 5807 5808 5807 5806 5804 5802 5802 5802 5802 5802 5802 5801 5802 5803 5804 5805 5807 5808 5810 5811 5812 5813 5815 5815 5816
5763 5765 5768 5769 5771 5773 5774 5776 5779 5781 5783 5786 5789 5790 5791 5794 5796 5796 5798 5801 5803 5805 5806 5807 5809 5810 5811 5812 5813 5814 5815 5817 5818 5818 5818 5818 5818 5818 5818 5818 5818 5819 5818 5818 5817 5817 5817 5818 5818 5818 5817 5817 5817 5817 5817 5817 5817 5816 5815 5814 5814 5814 5814 5812 5811 5810 5810 5810 5809 5808 5807 5805 5804 5804 5803 5802 5802 5800 5799 5799 5798 5798 5798 5798 5798 5800 5801 5802 5804 5806 5807 5808 5809 5811 5812 5813 5814
5759 5762 5764 5765 5768 5770 5771 5773 5776 5778 5780 5783 5786 5788 5789 5791 5793 5793 5795 5798 5800 5802 5803 5805 5807 5808 5809 5810 5811 5812 5813 5815 5815 5816 5815 5815 5815 5815 5816 5816 5816 5816 5816 5815 5815 5815 5816 5816 5816 5815 5815 5815 5815 5815 5815 5814 5814 5813 5813 5812 5812 5811 5811 5809 5808 5808 5807 5807 5806 5804 5804 5802 5801 5800 5799 5799 5799 5798 5796 5795 5795 5794 5794 5794 5795 5796 5798 5799 5801 5803 5804 5805 5807 5808 5810 5811 5812
5756 5758 5760 5762 5764 5766 5769 5772 5774 5776 5778 5780 5784 5786 5788 5789 5790 5790 5792 5794 5796 5798 5800 5802 5804 5806 5807 5808 5809 5810 5811 5812 5813 5813 5813 5813 5813 5814 5814 5814 5814 5814 5813 5813 5813 5813 5814 5814 5814 5813 5813 5812 5812 5812 5812 5812 5810 5809 5809 5809 5808 5807 5806 5806 5805 5804 5804 5803 5802 5801 5800 5799 5798 5797 5796 5796 5796 5795 5793 5792 5791 5790 5790 5791 5792 5794 5795 5796 5798 5800 5802 5803 5804 5806 5807 5808 5809
5752 5754 5757 5759 5762 5764 5767 5770 5772 5773 5774 5777 5780 5783 5785 5785 5786 5788 5789 5791 5793 5795 5797 5800 5802 5803 5805 5806 5807 5808 5809 5810 5810 5811 5811 5812 5812 5812 5812 5812 5812 5812 5811 5811 5811 5811 5811 5811 5811 5811 5810 5810 5809 5809 5809 5808 5807 5807 5806 5806 5805 5804 5803 5803 5802 5800 5799 5799 5799 5797 5796 5796 5795 5794 5793 5792 5793 5793 5791 5789 5787 5786 5786 5788 5789 5791 5792 5793 5795 5798 5799 5800 5802 5803 5805 5806 5806
5746 5750 5754 5756 5759 5762 5764 5767 5769 5769 5771 5775 5776 5778 5781 5782 5784 5785 5787 5788 5790 5792 5795 5797 5799 5801 5802 5803 5804 5805 5806 5807 5808 5808 5809 5810 5810 5810 5810 5810 5809 5809 5809 5808 5808 5808 5808 5808 5808 5808 5807 5807 5807 5806 5805 5805 5804 5804 5803 5803 5802 5801 5800 5799 5798 5797 5796 5795 5795 5794 5793 5793 5792 5791 5790 5789 5789 5788 5788 5785 5783 5782 5783 5785 5787 5788 5789 5791 5793 5795 5796 5797 5799 5801 5802 5803 5804
5743 5747 5750 5752 5756 5759 5761 5763 5765 5765 5768 5771 5772 5775 5779 5780 5781 5782 5784 5785 5787 5789 5792 5795 5797 5798 5800 5801 5802 5803 5804 5805 5806 5806 5807 5807 5808 5808 5808 5807 5807 5806 5806 5805 5805 5806 5806 5806 5805 5805 5805 5804 5803 5803 5802 5801 5801 5800 5800 5799 5798 5797 5796 5796 5795 5794 5793 5792 5792 5791 5790 5790 5789 5788 5787 5786 5785 5784 5784 5782 5781 5780 5781 5784 5785 5785 5787 5789 5791 5792 5793 5795 5797 5799 5800 5801 5802
5741 5745 5747 5749 5753 5756 5757 5760 5761 5761 5764 5767 5769 5772 5776 5778 5778 5779 5780 5782 5784 5787 5790 5792 5794 5796 5797 5798 5799 5800 5802 5803 5803 5804 5805 5805 5805 5805 5805 5805 5804 5803 5803 5802 5802 5802 5803 5803 5802 5802 5802 5801 5800 5799 5799 5798 5798 5797 5796 5795 5794 5793 5792 5792 5792 5791 5790 5790 5789 5788 5787 5787 5786 5785 5784 5784 5783 5782 5781 5780 5780 5779 5779 5781 5782 5782 5784 5787 5788 5789 5791 5793 5795 5797 5798 5799 5800
5738 5741 5743 5746 5750 5752 5755 5756 5757 5758 5761 5764 5766 5769 5774 5776 5775 5776 5778 5780 5782 5785 5787 5789 5792 5793 5795 5796 5797 5798 5799 5800 5801 5802 5802 5802 5802 5802 5802 5802 5802 5801 5800 5799 5799 5799 5799 5799 5799 5799 5799 5798 5797 5797 5796 5795 5795 5794 5793 5792 5791 5790 5789 5789 5789 5788 5787 5786 5786 5785 5784 5783 5782 5781 5781 5781 5781 5780 5780 5779 5778 5778 5777 5778 5779 5780 5782 5784 5785 5787 5788 5790 5792 5794 5796 5798 5799
5733 5736 5739 5742 5746 5748 5750 5752 5754 5756 5760 5762 5763 5768 5771 5771 5771 5773 5776 5778 5781 5783 5785 5787 5789 5791 5792 5793 5794 5795 5796 5797 5798 5799 5799 5799 5799 5799 5799 5799 5799 5799 5798 5797 5796 5796 5796 5795 5795 5795 5795 5794 5794 5794 5793 5793 5792 5791 5791 5790 5788 5788 5786 5786 5785 5784 5783 5782 5782 5781 5780 5779 5778 5777 5777 5778 5778 5778 5778 5777 5776 5776 5776 5777 5778 5779 5781 5782 5783 5785 5786 5787 5789 5791 5793 5795 5797
5728 5731 5735 5738 5741 5743 5745 5748 5751 5754 5756 5757 5761 5765 5767 5766 5768 5771 5773 5776 5779 5781 5782 5784 5786 5788 5789 5790 5791 5792 5793 5795 5796 5796 5796 5796 5796 5797 5797 5797 5796 5796 5795 5795 5794 5794 5793 5793 5793 5792 5792 5791 5791 5790 5790 5789 5789 5788 5788 5787 5786 5784 5783 5782 5781 5780 5779 5778 5778 5777 5776 5775 5775 5774 5774 5774 5775 5775 5775 5775 5775 5775 5775 5776 5777 5777 5779 5780 5782 5783 5784 5785 5787 5789 5791 5792 5794
5727 5730 5734 5737 5739 5741 5743 5746 5749 5752 5753 5753 5758 5761 5763 5764 5766 5769 5772 5774 5775 5777 5779 5782 5784 5785 5786 5787 5788 5789 5791 5792 5793 5793 5793 5793 5794 5794 5794 5794 5793 5793 5792 5792 5792 5791 5791 5790 5790 5790 5789 5788 5788 5787 5787 5786 5785 5784 5784 5783 5782 5781 5780 5779 5777 5776 5776 5775 5774 5773 5772 5770 5771 5771 5771 5772 5772 5772 5773 5773 5773 5773 5774 5774 5775 5776 5776 5778 5780 5781 5782 5783 5784 5786 5788 5789 5790
5726 5729 5731 5734 5738 5741 5743 5745 5748 5750 5750 5751 5754 5756 5758 5761 5763 5766 5770 5770 5772 5775 5777 5779 5781 5783 5784 5785 5785 5787 5788 5789 5790 5790 5791 5791 5791 5791 5791 5790 5790 5790 5790 5789 5789 5788 5788 5787 5787 5786 5785 5785 5784 5783 5783 5782 5781 5781 5780 5779 5778 5777 5776 5775 5774 5772 5772 5771 5771 5769 5768 5767 5767 5767 5768 5768 5769 5769 5770 5771 5771 5772 5772 5772 5773 5774 5775 5776 5778 5779 5779 5781 5782 5784 5785 5786 5788
5722 5724 5727 5731 5735 5737 5739 5743 5745 5747 5748 5749 5751 5752 5755 5758 5760 5764 5766 5768 5771 5773 5775 5777 5779 5780 5781 5782 5783 5784 5785 5786 5787 5787 5788 5788 5788 5788 5787 5787 5787 5787 5787 5787 5786 5786 5786 5785 5784 5783 5782 5781 5780 5780 5779 5778 5778 5777 5776 5776 5774 5773 5772 5771 5770 5768 5767 5767 5767 5766 5764 5764 5763 5764 5764 5765 5765 5765 5766 5767 5768 5769 5770 5770 5770 5771 5772 5773 5775 5776 5778 5779 5780 5781 5783 5784 5785
5719 5723 5725 5729 5731 5732 5736 5740 5741 5743 5746 5748 5750 5751 5753 5756 5759 5761 5764 5766 5769 5771 5772 5775 5776 5777 5778 5780 5781 5782 5782 5783 5783 5784 5784 5785 5785 5784 5784 5784 5784 5784 5784 5784 5783 5783 5783 5782 5782 5781 5780 5778 5777 5776 5775 5774 5773 5773 5772 5771 5771 5769 5768 5767 5766 5765 5763 5762 5762 5762 5761 5760 5760 5760 5760 5761 5762 5762 5762 5764 5765 5765 5766 5767 5767 5768 5769 5771 5772 5773 5775 5776 5777 5779 5780 5781 5783
5718 5721 5723 5726 5728 5729 5733 5735 5737 5740 5744 5745 5748 5750 5752 5754 5756 5759 5763 5765 5767 5769 5770 5772 5773 5775 5776 5777 5778 5779 5779 5779 5780 5780 5781 5781 5781 5781 5781 5781 5781 5781 5781 5781 5781 5780 5780 5780 5779 5778 5777 5776 5774 5773 5772 5770 5770 5769 5768 5768 5767 5766 5765 5764 5763 5761 5760 5759 5758 5758 5758 5757 5756 5756 5757 5758 5758 5758 5758 5759 5760 5761 5763 5763 5764 5765 5766 5768 5769 5770 5771 5772 5774 5775 5777 5778 5779
5714 5716 5719 5723 5726 5728 5731 5733 5735 5740 5742 5743 5746 5749 5750 5751 5753 5757 5761 5763 5764 5766 5768 5770 5771 5772 5773 5775 5775 5775 5776 5776 5776 5777 5777 5777 5778 5778 5778 5778 5778 5778 5778 5778 5778 5778 5777 5777 5776 5775 5774 5773 5772 5770 5769 5768 5767 5766 5765 5764 5764 5763 5761 5760 5759 5758 5757 5755 5755 5755 5754 5753 5752 5753 5753 5754 5754 5755 5755 5755 5756 5757 5759 5760 5761 5762 5763 5764 5766 5767 5768 5769 5770 5772 5774 5775 5776
5710 5712 5716 5719 5722 5725 5728 5731 5734 5738 5740 5742 5744 5746 5747 5748 5750 5754 5758 5760 5761 5763 5765 5767 5768 5769 5771 5771 5772 5772 5772 5773 5773 5774 5774 5774 5774 5774 5775 5775 5775 5776 5776 5776 5775 5775 5775 5774 5774 5773 5771 5770 5769 5768 5766 5765 5764 5763 5762 5762 5761 5760 5758 5757 5756 5755 5754 5752 5751 5751 5750 5749 5749 5750 5750 5751 5751 5751 5752 5752 5753 5754 5755 5756 5757 5758 5760 5761 5762 5763 5764 5766 5767 5769 5770 5772 5773
5709 5712 5715 5717 5719 5722 5725 5727 5731 5734 5737 5739 5742 5744 5745 5747 5749 5751 5755 5758 5759 5761 5762 5763 5764 5766 5767 5768 5769 5769 5769 5769 5769 5770 5771 5771 5771 5771 5772 5772 5772 5772 5772 5772 5772 5772 5772 5772 5771 5770 5768 5767 5766 5765 5764 5763 5762 5761 5760 5759 5758 5757 5756 5754 5753 5752 5750 5749 5748 5747 5746 5746 5745 5746 5747 5747 5747 5748 5748 5749 5749 5751 5752 5752 5753 5754 5756 5757 5758 5760 5761 5762 5763 5765 5766 5768 5769